[[[{"header":{"parameterUnit":"kt","parameterCategory":2,"dx":1,"dy":1,"la1":30.253999710083008,"la2":30.299108505249023,"lo1":-89.0895004272461,"lo2":-89.04439544677734,"nx":28,"ny":28,"refTime":"2022-09-17T21:00:00:Z","depth":0,"parameterNumber":1,"parameterNumberName":"U-component_of_WINDS"},"data":[-9.0438,-9.0621,-9.0536,-9.0708,-9.066,-9.0763,-9.0773,-9.0777,-9.0759,-9.0876,-9.0928,-9.0863,-9.0814,-9.0858,-9.0912,-9.0882,-9.091,-9.1039,-9.0981,-9.0482,-9.0408,-9.0337,-9.0284,-9.1047,-9.1048,-9.1508,-9.1512,-9.1515,-9.0081,-9.0035,-9.0101,-9.0106,-9.0161,-8.9986,-8.9977,-9.0036,-9.0135,-9.0115,-9.0161,-9.0257,-9.0324,-9.0228,-9.0278,-9.0365,-9.0285,-9.0385,-9.0375,-9.037,-8.9834,-8.978,-9.0448,-9.0448,-9.0448,-9.0448,-9.0448,-9.0447,-8.9409,-8.9524,-8.9473,-8.9543,-8.9522,-8.9528,-8.9622,-8.9536,-8.9601,-8.9639,-8.9525,-8.9636,-8.96,-8.9618,-8.9603,-8.9689,-8.9563,-8.9645,-8.9665,-8.9687,-8.9724,-8.9069,-8.9694,-8.9692,-8.9689,-8.9688,-8.9686,0,-8.8888,-8.8807,-8.8862,-8.8894,-8.8939,-8.8956,-8.8956,-8.9013,-8.8812,-8.8876,-8.8959,-8.8993,-8.9062,-8.9132,-8.9159,-8.9125,-8.8949,-8.8923,-8.8978,-8.9033,-8.9079,-8.9055,-8.8184,-8.8904,-8.8897,-8.8892,-8.8888,-8.8886,-8.82,-8.8345,-8.825,-8.8301,-8.8277,-8.8366,-8.8399,-8.821,-8.8255,-8.8229,-8.8342,-8.8409,-8.8451,-8.8604,-8.8503,-8.8555,-8.8469,-8.8754,-8.8476,-8.8524,-8.8471,-8.8463,-8.8476,-8.8811,-8.882,-8.8828,-8.8834,0,-8.7821,-8.7674,-8.7869,-8.776,-8.7737,-8.7899,-8.7806,-8.7915,-8.7817,-8.7954,-8.7974,-8.7824,-8.7911,-8.7761,-8.7832,-8.7752,-8.8021,-8.7938,-8.8031,-8.8005,-8.8243,-8.8223,-8.9044,-8.9141,-8.8351,-8.8358,-8.8365,0,-8.7175,-8.7373,-8.7141,-8.7262,-8.7476,-8.7276,-8.7494,-8.7431,-8.7392,-8.7497,-8.7271,-8.7375,-8.7166,-8.7251,-8.7132,-8.7326,-8.734,-8.7289,-8.7254,-8.7308,-8.7314,-8.7327,-8.729,-8.7174,-8.717,-8.7166,-8.7163,0,-8.6594,-8.6702,-8.6897,-8.6898,-8.68,-8.6898,-8.6863,-8.6817,-8.6853,-8.6876,-8.6896,-8.694,-8.6964,-8.7002,-8.6848,-8.6665,-8.7082,-8.6798,-8.7029,-8.7034,-8.7127,-8.7123,-8.789,-8.7158,-8.7157,-8.7155,-8.7154,0,-8.6047,-8.6069,-8.6377,-8.6287,-8.6323,-8.6455,-8.6478,-8.6555,-8.6524,-8.6455,-8.6472,-8.6301,-8.6457,-8.6187,-8.64,-8.6204,-8.6242,-8.6207,-8.6221,-8.6223,-8.5923,-8.6373,-8.7121,-8.7191,-8.623,-8.6222,-8.6215,0,-8.5422,-8.569,-8.5517,-8.5815,-8.5916,-8.5648,-8.5791,-8.5768,-8.5687,-8.5764,-8.5674,-8.5765,-8.5531,-8.5538,-8.5664,-8.5577,-8.5832,-8.5538,-8.5655,-8.5661,-8.5667,-8.6354,-8.65,-8.6974,-8.6115,-8.6125,-8.6133,0,-8.4917,-8.479,-8.4856,-8.4845,-8.478,-8.4865,-8.503,-8.5072,-8.5132,-8.5133,-8.5265,-8.539,-8.5217,-8.5232,-8.5097,-8.5236,-8.5654,-8.5032,-8.5028,-8.5148,-8.6052,-8.619,-8.627,-8.5533,-8.5545,-8.5554,-8.6053,0,-8.4119,-8.4233,-8.4403,-8.439,-8.4431,-8.4609,-8.4439,-8.4505,-8.4368,-8.4276,-8.447,-8.4412,-8.446,-8.451,-8.4379,-8.4745,-8.466,-8.4475,-8.4198,-8.4651,-8.4811,-8.4876,-8.3973,-8.3964,-8.3956,-8.395,0,0,-8.3556,-8.3714,-8.3517,-8.3665,-8.3686,-8.3402,-8.3607,-8.3596,-8.3582,-8.3604,-8.3448,-8.3617,-8.3578,-8.3831,-8.3959,-8.398,-8.4029,-8.3877,-8.4437,-8.4492,-8.4543,-8.4717,-8.4788,-8.3936,-8.3933,-8.3931,-8.3928,0,-8.3227,-8.3187,-8.3389,-8.3367,-8.3326,-8.3217,-8.3267,-8.3177,-8.3127,-8.3314,-8.3079,-8.3176,-8.3317,-8.3304,-8.3317,-8.3843,-8.366,-8.3871,-8.4208,-8.4366,-8.4431,-8.4488,-8.4674,-8.4743,-8.3909,-8.3911,-8.3911,0,-8.2696,-8.2627,-8.2707,-8.274,-8.2711,-8.2824,-8.249,-8.2625,-8.2707,-8.2391,-8.2581,-8.2528,-8.2498,-8.276,-8.2871,-8.2732,-8.3334,-8.3115,-8.3159,-8.3167,-8.3312,-8.3391,-8.3461,-8.2537,-8.2533,-8.2529,0,0,-8.2436,-8.2539,-8.2404,-8.2656,-8.2654,-8.2494,-8.2537,-8.2402,-8.2378,-8.237,-8.2295,-8.2283,-8.236,-8.2418,-8.2483,-8.2795,-8.2772,-8.2953,-8.3017,-8.3071,-8.3109,-8.3268,-8.3346,-8.2513,-8.2513,-8.2512,0,0,-8.2311,-8.2162,-8.2025,-8.2295,-8.2279,-8.2164,-8.2326,-8.2156,-8.2197,-8.2157,-8.1939,-8.1926,-8.2167,-8.2124,-8.1935,-8.2381,-8.211,-8.2152,-8.2399,-8.2479,-8.2542,-8.2546,-8.1586,0,0,0,0,0,-8.1885,-8.2179,-8.2057,-8.2076,-8.2118,-8.2233,-8.2237,-8.206,-8.1871,-8.2003,-8.1913,-8.1714,-8.1977,-8.1804,-8.1829,-8.2041,-8.2313,-8.2348,-8.2382,-8.2773,-8.2858,-8.2929,0,0,0,0,0,0,-8.189,-8.1915,-8.2048,-8.1949,-8.1956,-8.222,-8.186,-8.182,-8.1852,-8.1811,-8.1737,-8.1711,-8.1566,-8.178,-8.1805,-8.201,-8.1577,-8.2327,-8.2357,-8.2384,-8.2802,-8.2871,-8.2931,0,0,0,0,0,-8.1894,-8.1914,-8.2026,-8.1943,-8.195,-8.1785,-8.1847,-8.1811,-8.1833,-8.1694,-8.1661,-8.1696,-8.1576,-8.1585,-8.1794,-8.2003,-8.1558,-8.1568,-8.2346,-8.237,-8.2391,-8.2836,0,0,0,0,0,0,-8.1897,-8.1883,-8.2023,-8.2019,-8.1816,-8.1767,-8.1752,-8.1805,-8.1709,-8.1681,-8.1641,-8.161,-8.1588,-8.1592,-8.1601,-8.201,-8.1543,-8.1554,-8.156,-8.2364,-8.2383,-8.24,0,0,0,0,0,0,-8.1871,-8.1881,-8.2021,-8.1872,-8.1848,-8.1751,-8.1738,-8.189,-8.1713,-8.1661,-8.1632,-8.1628,-8.1576,-8.1599,-8.1604,-8.1849,-8.1532,-8.1541,-8.1548,-8.1552,-8.238,-8.2394,0,0,0,0,0,0,-8.1872,-8.188,-8.1871,-8.1854,-8.1832,-8.1769,-8.1882,-8.1936,-8.1581,-8.167,-8.1545,-8.1528,-8.159,-8.159,-8.1609,-8.1853,-8.185,-8.1532,-8.1539,-8.1543,-8.1546,0,0,0,0,0,0,0,-8.1873,-8.1856,-8.205,-8.1839,-8.182,-8.1978,-8.1977,-8.1975,-8.1578,-8.1563,-8.1549,-8.1535,-8.1476,-8.1487,-8.1497,-8.1856,0,0,-8.1531,-8.1536,0,0,0,0,0,0,0,0,-8.1848,-8.1854,-8.205,-8.2049,-8.2048,-8.1978,-8.1977,-8.1976,-8.1575,-8.1563,-8.1552,-8.1541,-8.1479,-8.1487,-8.1496,0,0,0,0,0,0,0,0,0,0,0,0,0,0,0,-8.205,-8.2049,0,-8.1978,-8.1977,-8.1976,-8.1574,-8.1564,-8.1554,-8.1545,-8.1481,-8.1488,-8.1496,0,0,0,0,0,0,0,0,0,0,0,0,0,0,0,0,0,0,0,0,0,0,0,0,0,0,0,0,0,0,0,0,0,0,0,0,0,0,0,0,0,0,0,0,0,0,0,0,0,0,0,0,0,0,0,0,0,0,0,0,0,0,0,0,0,0,0,0,0]}],[{"header":{"parameterUnit":"kt","parameterCategory":2,"dx":1,"dy":1,"la1":30.253999710083008,"la2":30.299108505249023,"lo1":-89.0895004272461,"lo2":-89.04439544677734,"nx":28,"ny":28,"refTime":"2022-09-17T21:00:00:Z","depth":0,"parameterNumber":2,"parameterNumberName":"V-component_of_WINDS"},"data":[0.4903,0.4921,0.4884,0.4889,0.4856,0.4854,0.4841,0.4821,0.4795,0.4789,0.4779,0.4744,0.4705,0.4685,0.4674,0.4658,0.4656,0.4691,0.4667,0.4545,0.4526,0.4507,0.4499,0.4691,0.4691,0.4799,0.48,0.4801,0.482,0.4788,0.4779,0.4745,0.4737,0.4682,0.465,0.4648,0.4647,0.4616,0.4604,0.4595,0.4584,0.4532,0.4515,0.4525,0.4498,0.4523,0.4522,0.4516,0.4385,0.4377,0.4545,0.4545,0.4545,0.4545,0.4545,0.4545,0.4659,0.4672,0.4628,0.4617,0.459,0.4568,0.4574,0.4529,0.452,0.4496,0.4453,0.4452,0.4414,0.4375,0.4352,0.4351,0.4316,0.4332,0.4336,0.4341,0.4353,0.4204,0.4347,0.4346,0.4346,0.4345,0.4345,0,0.4529,0.4497,0.4484,0.4461,0.4451,0.443,0.4404,0.4407,0.4324,0.432,0.4312,0.4301,0.428,0.4269,0.4245,0.4217,0.4159,0.4149,0.416,0.418,0.4203,0.4192,0.3979,0.4144,0.4143,0.4141,0.414,0.414,0.4364,0.4382,0.4317,0.4314,0.4289,0.4286,0.4275,0.42,0.4193,0.4151,0.4166,0.4153,0.4138,0.4133,0.4081,0.4066,0.4037,0.4105,0.4034,0.4054,0.4038,0.4038,0.404,0.412,0.4122,0.4124,0.4126,0,0.4275,0.421,0.4226,0.4159,0.4143,0.4167,0.4109,0.4119,0.4073,0.4081,0.4078,0.4007,0.4001,0.3936,0.3916,0.3883,0.3925,0.3897,0.3938,0.3929,0.3983,0.3979,0.4169,0.419,0.3991,0.3993,0.3995,0,0.4109,0.4136,0.4037,0.405,0.4078,0.4,0.403,0.3993,0.3956,0.3961,0.3883,0.389,0.3805,0.3804,0.3754,0.3777,0.3773,0.3749,0.3735,0.3756,0.3759,0.3751,0.3742,0.3704,0.3703,0.3702,0.3701,0,0.3975,0.3953,0.3973,0.3957,0.3887,0.3899,0.3871,0.3828,0.3819,0.3796,0.379,0.377,0.3759,0.3746,0.3683,0.3638,0.3709,0.3633,0.3684,0.3686,0.3702,0.3702,0.3887,0.37,0.37,0.37,0.3699,0,0.383,0.3806,0.3844,0.3784,0.3781,0.3794,0.3768,0.3764,0.3725,0.3693,0.3675,0.3615,0.3628,0.3558,0.3575,0.3534,0.3529,0.3507,0.3509,0.3506,0.3429,0.3542,0.3724,0.3741,0.3505,0.3503,0.3501,0,0.3696,0.3715,0.3647,0.3685,0.3684,0.3594,0.3608,0.3575,0.3534,0.3529,0.3484,0.3479,0.3413,0.3402,0.3419,0.3373,0.3427,0.3364,0.3361,0.3361,0.3373,0.354,0.3583,0.3692,0.348,0.3482,0.3484,0,0.3583,0.3494,0.3506,0.3484,0.3425,0.3424,0.344,0.3416,0.3416,0.3387,0.3398,0.339,0.3339,0.3323,0.3271,0.3292,0.3388,0.3235,0.3233,0.3265,0.3463,0.3504,0.3522,0.3349,0.3352,0.3354,0.3466,0,0.3379,0.3379,0.3406,0.336,0.3348,0.3368,0.3294,0.3292,0.3242,0.3197,0.3213,0.3168,0.3145,0.3148,0.3099,0.3169,0.3147,0.3093,0.3019,0.3129,0.3165,0.3179,0.2973,0.297,0.2968,0.2966,0,0,0.3267,0.3264,0.3186,0.3196,0.3182,0.3086,0.3113,0.3088,0.304,0.3032,0.2991,0.2972,0.2937,0.2964,0.2992,0.2983,0.2989,0.2953,0.3077,0.309,0.3102,0.3141,0.3157,0.2962,0.2961,0.2961,0.296,0,0.3176,0.3138,0.3165,0.3134,0.3086,0.3036,0.3043,0.2979,0.2951,0.2964,0.2886,0.2887,0.2873,0.2846,0.2831,0.2948,0.2889,0.2947,0.3034,0.3058,0.3074,0.3087,0.3129,0.3145,0.2955,0.2955,0.2955,0,0.3051,0.3002,0.3006,0.2966,0.2934,0.2935,0.2839,0.2845,0.2846,0.2741,0.2756,0.2721,0.2679,0.2713,0.2726,0.2688,0.2802,0.2753,0.2765,0.2764,0.2785,0.2804,0.282,0.2599,0.2598,0.2597,0,0,0.2983,0.2981,0.2904,0.2941,0.2926,0.2851,0.2844,0.2792,0.2754,0.274,0.2693,0.266,0.2651,0.2647,0.2635,0.2683,0.2668,0.2712,0.2729,0.2743,0.275,0.2774,0.2793,0.2593,0.2593,0.2593,0,0,0.295,0.2861,0.2816,0.2849,0.2815,0.2742,0.2768,0.2712,0.2692,0.2682,0.2596,0.2584,0.2614,0.2583,0.2544,0.2607,0.2536,0.2544,0.2626,0.2647,0.2663,0.267,0.2439,0,0,0,0,0,0.2818,0.2872,0.2832,0.2826,0.2774,0.2765,0.2758,0.2686,0.2637,0.266,0.2612,0.2548,0.2544,0.2507,0.2504,0.2548,0.2547,0.2555,0.2563,0.268,0.2702,0.2721,0,0,0,0,0,0,0.2815,0.2808,0.283,0.2761,0.2748,0.2762,0.2663,0.2645,0.2633,0.2621,0.2559,0.2546,0.2487,0.2504,0.2502,0.2546,0.244,0.255,0.2557,0.2564,0.2688,0.2706,0.2721,0,0,0,0,0,0.2812,0.2806,0.2741,0.2759,0.2749,0.2667,0.266,0.2644,0.2634,0.2559,0.2543,0.2581,0.249,0.2483,0.2503,0.2548,0.2441,0.244,0.2555,0.256,0.2565,0.2697,0,0,0,0,0,0,0.281,0.2793,0.2737,0.2732,0.2732,0.2665,0.2652,0.2644,0.2571,0.2557,0.2576,0.2567,0.2493,0.2487,0.2482,0.2553,0.2441,0.2441,0.2441,0.2559,0.2563,0.2567,0,0,0,0,0,0,0.2795,0.2788,0.2734,0.2705,0.2694,0.2663,0.2652,0.2658,0.2572,0.2593,0.2583,0.2573,0.25,0.249,0.2486,0.2499,0.2442,0.2441,0.2441,0.2441,0.2563,0.2566,0,0,0,0,0,0,0.2791,0.2785,0.2705,0.2698,0.2689,0.2618,0.2667,0.2619,0.2545,0.2597,0.2536,0.2532,0.2505,0.2499,0.2489,0.2504,0.25,0.2442,0.2442,0.2441,0.2441,0,0,0,0,0,0,0,0.2788,0.2843,0.2772,0.2693,0.2685,0.2678,0.2676,0.2674,0.2544,0.254,0.2537,0.2534,0.2444,0.2444,0.2443,0.2508,0,0,0.2442,0.2442,0,0,0,0,0,0,0,0,0.2844,0.2843,0.2772,0.2771,0.2769,0.2677,0.2676,0.2675,0.2543,0.254,0.2538,0.2535,0.2444,0.2444,0.2444,0,0,0,0,0,0,0,0,0,0,0,0,0,0,0,0.2772,0.2771,0,0.2677,0.2676,0.2675,0.2543,0.2541,0.2538,0.2536,0.2444,0.2444,0.2444,0,0,0,0,0,0,0,0,0,0,0,0,0,0,0,0,0,0,0,0,0,0,0,0,0,0,0,0,0,0,0,0,0,0,0,0,0,0,0,0,0,0,0,0,0,0,0,0,0,0,0,0,0,0,0,0,0,0,0,0,0,0,0,0,0,0,0,0,0]}]]]